Driggs, ID

9:39 AM MDT on May 25, 2018 (GMT -0600)
Driggs

Weather History for KDIJ - December, 2011

Change the Weather History Date:

Sunday, December 4, 2011

  Actual Average (KJAC) Record (KJAC)
Temperature  
Mean Temperature 6 °F -  
Max Temperature 17 °F 31 °F 46 °F (1979)
Min Temperature -10 °F 4 °F -30 °F (1984)
Degree Days  
Heating Degree Days 60    
Moisture  
Dew Point 7 °F    
Average Humidity 81    
Maximum Humidity 92    
Minimum Humidity 66    
Precipitation  
Precipitation 0.00 in - - ()
Sea Level Pressure  
Sea Level Pressure 30.21 in    
Wind  
Wind Speed 3 mph (SSE)    
Max Wind Speed 13 mph    
Max Gust Speed -    
Visibility 6 miles    
Events Snow    
Averages and records for this station are not official NWS values.
T = Trace of Precipitation, MM = Missing Value Source: NWS Daily Summary

Daily Weather History Graph

Daily Weather History Graph

Search for Another Location

Airport or City:

Astronomy

Dec. 04, 2011 Rise Set
Actual Time 7:41 AM MST 4:47 PM MST
Civil Twilight 7:08 AM MST 5:20 PM MST
Nautical Twilight 6:32 AM MST 5:56 PM MST
Astronomical Twilight 5:58 AM MST 6:30 PM MST
Moon 1:27 PM MST (12/4) 2:01 AM MST (12/4)
Length of Visible Light 10h 11m
Length of Day
9h 06m
Waxing Gibbous, 72% of the Moon is Illuminated
Dec 4
Waxing Gibbous
Dec 10
Full
Dec 17
Last Quarter
Dec 24
New
Dec 31
First Quarter

Hourly Weather History & Observations

Time (MST) Temp. Windchill Dew Point Humidity Pressure Visibility Wind Dir Wind Speed Gust Speed Precip Events Conditions
12:56 AM 9.1 °F -0.7 °F 4.1 °F 80% 30.23 in 10.0 mi ESE 5.8 mph - N/A   Overcast
1:56 AM 14.0 °F 8.2 °F 7.2 °F 74% 30.21 in 10.0 mi South 3.5 mph - N/A   Overcast
2:56 AM 15.1 °F 6.4 °F 10.0 °F 80% 30.20 in 5.0 mi East 5.8 mph - 0.00 in Snow Light Snow
3:03 AM 15.8 °F 7.2 °F 10.4 °F 79% 30.10 in 5.0 mi East 5.8 mph - 0.00 in Snow Light Snow
3:35 AM 15.8 °F 10.2 °F 10.4 °F 79% 30.09 in 4.0 mi East 3.5 mph - 0.00 in Snow Light Snow
3:56 AM 15.1 °F - 12.0 °F 88% 30.24 in 3.0 mi Calm Calm - 0.00 in Snow Light Snow
4:03 AM 15.8 °F - 12.2 °F 86% 30.10 in 2.0 mi Calm Calm - 0.00 in Snow Light Snow
4:12 AM 15.8 °F - 12.2 °F 86% 30.10 in 4.0 mi Calm Calm - 0.00 in Snow Light Snow
4:22 AM 15.8 °F - 12.2 °F 86% 30.10 in 4.0 mi Calm Calm - 0.00 in Snow Light Snow
5:16 AM 15.8 °F 10.2 °F 12.2 °F 86% 30.09 in 1.8 mi East 3.5 mph - 0.00 in Snow Light Snow
5:23 AM 15.8 °F - 12.2 °F 86% 30.09 in 2.5 mi Calm Calm - 0.00 in Snow Light Snow
5:56 AM 15.1 °F - 12.0 °F 88% 30.23 in 3.0 mi Calm Calm - 0.00 in Snow Light Snow
6:56 AM 14.0 °F - 10.0 °F 84% 30.24 in 4.0 mi Calm Calm - 0.00 in Snow Light Snow
7:04 AM 14.0 °F - 10.4 °F 86% 30.10 in 4.0 mi Calm Calm - 0.00 in Snow Light Snow
7:14 AM 14.0 °F 8.2 °F 10.4 °F 86% 30.10 in 2.0 mi North 3.5 mph - 0.00 in Snow Light Snow
7:24 AM 14.0 °F - 10.4 °F 86% 30.10 in 3.0 mi Calm Calm - 0.00 in Snow Light Snow
7:56 AM 13.1 °F - 10.0 °F 88% 30.24 in 2.5 mi Calm Calm - 0.00 in Snow Light Snow
8:05 AM 12.2 °F - 10.4 °F 92% 30.10 in 2.0 mi Calm Calm - 0.00 in Snow Light Snow
8:28 AM 12.2 °F - 10.4 °F 92% 30.11 in 2.0 mi Calm Calm - 0.00 in   Overcast
8:56 AM 14.0 °F - 10.0 °F 84% 30.25 in 2.0 mi Calm Calm - 0.00 in   Overcast
8:58 AM 14.0 °F - 10.4 °F 86% 30.11 in 1.8 mi Calm Calm - N/A   Overcast
9:07 AM 14.0 °F - 10.4 °F 86% 30.11 in 1.2 mi Calm Calm - 0.00 in Snow Light Snow
9:17 AM 14.0 °F - 10.4 °F 86% 30.11 in 1.8 mi Calm Calm - 0.00 in Snow Light Snow
9:31 AM 14.0 °F - 10.4 °F 86% 30.12 in 2.0 mi Calm Calm - 0.00 in Snow Light Snow
9:42 AM 14.0 °F - 10.4 °F 86% 30.12 in 5.0 mi Calm Calm - 0.00 in   Overcast
9:56 AM 14.0 °F - 10.0 °F 84% 30.26 in 10.0 mi Calm Calm - 0.00 in   Overcast
10:11 AM 14.0 °F - 10.4 °F 86% 30.13 in 10.0 mi Calm Calm - N/A   Overcast
10:18 AM 14.0 °F - 10.4 °F 86% 30.13 in 10.0 mi Calm Calm - N/A   Overcast
10:33 AM 14.0 °F 8.2 °F 10.4 °F 86% 30.14 in 10.0 mi SW 3.5 mph - N/A   Overcast
10:49 AM 15.8 °F 8.6 °F 10.4 °F 79% 30.13 in 10.0 mi SSW 4.6 mph - N/A   Scattered Clouds
10:56 AM 15.1 °F 9.4 °F 11.1 °F 84% 30.27 in 10.0 mi SW 3.5 mph - N/A   Scattered Clouds
11:56 AM 16.2 °F 5.5 °F 11.1 °F 81% 30.28 in 10.0 mi NW 8.1 mph - N/A   Clear
12:17 PM 17.6 °F 12.3 °F 10.4 °F 73% 30.12 in 10.0 mi WNW 3.5 mph - N/A   Mostly Cloudy
12:43 PM 17.6 °F 10.7 °F 10.4 °F 73% 30.12 in 10.0 mi West 4.6 mph - N/A   Scattered Clouds
1:56 PM 17.1 °F 7.6 °F 11.1 °F 77% 30.23 in 10.0 mi South 6.9 mph - N/A   Clear
2:56 PM 16.2 °F 5.5 °F 10.0 °F 77% 30.24 in 10.0 mi SSE 8.1 mph - N/A   Partly Cloudy
3:56 PM 15.1 °F 6.4 °F 8.1 °F 74% 30.26 in 10.0 mi SSE 5.8 mph - N/A   Clear
4:56 PM 12.0 °F 1.5 °F 5.0 °F 73% 30.29 in 10.0 mi North 6.9 mph - N/A   Clear
5:56 PM 4.1 °F -8.0 °F -4.9 °F 66% 30.36 in 10.0 mi ENE 6.9 mph - N/A   Clear
6:56 PM -1.8 °F -17.5 °F -8.0 °F 75% 30.41 in 10.0 mi SE 9.2 mph - N/A   Partly Cloudy
7:56 PM 0.1 °F -17.7 °F -6.0 °F 75% 30.42 in 10.0 mi SE 12.7 mph - N/A   Scattered Clouds
8:56 PM 0.1 °F -17.7 °F -6.9 °F 72% 30.43 in 10.0 mi SSE 12.7 mph - N/A   Scattered Clouds
9:56 PM 1.0 °F -12.9 °F -8.0 °F 66% 30.44 in 10.0 mi SSW 8.1 mph - N/A   Scattered Clouds
10:56 PM -6.0 °F -22.6 °F -10.8 °F 79% 30.49 in 10.0 mi South 9.2 mph - N/A   Clear
11:56 PM -10.8 °F -26.0 °F -17.0 °F 74% 30.51 in 10.0 mi SE 6.9 mph - N/A   Clear